Flag for Poland Weather past 2 weeks in Gdynia, Poland

41 °F

Passing clouds.

Feels Like: 37 °F
Forecast: 42 / 50 °F
Wind: 6 mph from Southeast

Location: Gdansk-Rebiechowo

Current Time: Oct 13, 2015 at 11:52:05 PM

Latest Report: Oct 13, 2015 at 11:00 PM

Visibility: N/A

Pressure: 30.21 "Hg

Humidity: 81%

Dew point: 36 °F

Location of GdyniaLocation

Historic Weather in Gdynia — Graph


Gdynia temperature yesterday

Maximum temperature yesterday: 45 °F (at 1:00 PM)
Minimum temperature yesterday: 28 °F (at 3:30 AM)
Average temperature yesterday: 37 °F

Past Weeks' High & Low Weather Summary

High70 °F (Oct 4, 3:30 PM)100% (Sep 29, 5:30 AM)30.69 "Hg (Sep 29, 5:30 AM)
Low25 °F (Oct 10, 7:30 AM)35% (Oct 8, 4:00 PM)29.89 "Hg (Oct 4, 10:30 AM)
Average46 °F75%30.26 "Hg
* Reported Sep 28 10:00 PM — Oct 13 10:30 PM, Gdynia, Weather by CustomWeather, © 2015

Note: Actual official high and low records may vary slightly from our data, if they occured in-between our weather recording intervals... More about our weather records


Gdynia weather history for previous 24 hours

Time TempWeatherWind HumidityBarometerVisibility
10:30 PM
Tue, Oct 13
41 °FPassing clouds.6 mph76%30.21 "HgN/A
10:00 PM41 °FPassing clouds.7 mph76%30.21 "HgN/A
9:30 PM41 °FPassing clouds.7 mph76%30.21 "HgN/A
9:00 PM41 °FPassing clouds.7 mph76%30.21 "HgN/A
8:30 PM41 °FOvercast.7 mph76%30.21 "HgN/A
8:00 PM41 °FOvercast.6 mph76%30.21 "HgN/A
7:30 PM41 °FOvercast.5 mph76%30.21 "HgN/A
7:00 PM41 °FOvercast.5 mph81%30.21 "Hg5 mi
6:30 PM41 °FOvercast.5 mph81%30.21 "Hg5 mi
6:00 PM41 °FOvercast.5 mph76%30.18 "Hg5 mi
5:30 PM41 °FOvercast.5 mph76%30.18 "Hg5 mi
5:00 PM41 °FOvercast.8 mph76%30.18 "Hg5 mi
4:30 PM41 °FOvercast.8 mph76%30.18 "HgN/A
4:00 PM43 °FOvercast.10 mph66%30.18 "HgN/A
3:30 PM43 °FOvercast.7 mph66%30.18 "HgN/A
3:00 PM43 °FOvercast.7 mph66%30.18 "HgN/A
2:30 PM41 °FPartly sunny.7 mph70%30.18 "HgN/A
2:00 PM41 °FLight rain. Partly sunny.8 mph70%30.18 "HgN/A
1:30 PM43 °FLow clouds.8 mph66%30.18 "HgN/A
1:00 PM43 °FOvercast.10 mph66%30.18 "HgN/A
12:30 PM41 °FPartly sunny.12 mph70%30.18 "HgN/A
12:00 PM41 °FPartly sunny.12 mph70%30.18 "HgN/A
11:30 AM41 °FPartly sunny.10 mph70%30.18 "HgN/A
11:00 AM39 °FOvercast.9 mph75%30.21 "HgN/A
10:30 AM39 °FPartly sunny.9 mph75%30.21 "HgN/A
10:00 AM39 °FPartly sunny.9 mph75%30.21 "HgN/A
9:30 AM39 °FPartly sunny.8 mph75%30.21 "HgN/A
9:00 AM37 °FLight rain. More clouds than sun.9 mph81%30.21 "HgN/A
8:30 AM37 °FLight rain. Overcast.7 mph81%30.21 "HgN/A
8:00 AM37 °FPartly cloudy.8 mph81%30.21 "HgN/A
7:30 AM37 °FPassing clouds.8 mph81%30.21 "HgN/A
7:00 AM37 °FLight rain. Passing clouds.6 mph81%30.21 "HgN/A
6:30 AM37 °FLight rain. Passing clouds.6 mph87%30.21 "HgN/A
6:00 AM37 °FLight rain. Passing clouds.8 mph81%30.24 "HgN/A
5:30 AM37 °FLight rain. Passing clouds.3 mph87%30.24 "HgN/A
5:00 AM37 °FPassing clouds.5 mph87%30.24 "HgN/A
4:30 AM37 °FLight rain. Passing clouds.3 mph87%30.24 "HgN/A
4:00 AM37 °FLight rain. Passing clouds.3 mph81%30.24 "HgN/A
3:30 AM37 °FLight rain. Passing clouds.9 mph75%30.27 "HgN/A
3:00 AM39 °FPassing clouds.5 mph65%30.27 "HgN/A
2:30 AM39 °FPassing clouds.7 mph65%30.27 "HgN/A
2:00 AM39 °FPassing clouds.8 mph65%30.27 "HgN/A
1:30 AM41 °FPassing clouds.9 mph61%30.27 "HgN/A
1:00 AM41 °FPassing clouds.9 mph57%30.27 "HgN/A
12:30 AM41 °FClear.9 mph57%30.27 "Hg10 mi
12:00 AM41 °FClear.8 mph57%30.30 "Hg10 mi
11:30 PM
Mon, Oct 12
41 °FClear.8 mph57%30.30 "Hg10 mi
11:00 PM41 °FPassing clouds.7 mph57%30.30 "HgN/A
Weather by CustomWeather, © 2015

See weather overviewHow to use our weather pages